Regional Weather Roundup
Issued by NWS

Home | Current Version | Previous Version | Text Only | Print | Product List | Glossary On
Versions: 1 2 3 4 5 6 7 8 9 10 11 12 13 14 15 16 17 18 19 20 21 22 23 24 25 26 27 28 29 30 31 32 33 34 35 36 37 38 39 40 41 42 43 44 45 46 47 48 49 50
000
ASUS45 KPSR 012210
RWRAZ

ARIZONA REGIONAL HOURLY WEATHER ROUNDUP
NATIONAL WEATHER SERVICE PHOENIX AZ
300 PM MST WED APR 01 2015

NOTE: FAIR INDICATES FEW OR NO CLOUDS BELOW 12,000 FEET WITH NO
SIGNIFICANT WEATHER AND/OR OBSTRUCTIONS TO VISIBILITY.

AZZ001>003-036-012300-
NORTHWEST ARIZONA

CITY           SKY/WX    TMP DP  RH WIND       PRES   REMARKS
BULLHEAD CITY  SUNNY     88   9   5 N8        29.80F
KINGMAN        SUNNY     78  17  10 S9        29.91F
$$

AZZ004>008-015-016-018-012300-
NORTH CENTRAL ARIZONA

CITY           SKY/WX    TMP DP  RH WIND       PRES   REMARKS
GRAND CANYON   SUNNY     66  15  14 W10G22    29.99F
WILLIAMS       SUNNY     64  21  19 W15G25    30.08F
PRESCOTT       SUNNY     70  23  17 W14G24    29.97F
FLAGSTAFF      MOSUNNY   62  26  25 SW17G31   30.02F
PAYSON         SUNNY     68  27  21 W12G20    30.00S
PAGE           SUNNY     76   1   5 W16G26    29.85S
$$

AZZ009>014-017-012300-
NORTHEAST ARIZONA

CITY           SKY/WX    TMP DP  RH WIND       PRES   REMARKS
WINSLOW        SUNNY     76  22  13 SW22G31   29.91F
SAINT JOHNS    MOSUNNY   72  20  14 W29G37    29.93F
WINDOW ROCK    MOSUNNY   69  17  13 W17       29.95F
SHOW LOW       SUNNY     66  19  16 SW25G31   30.03F
$$

AZZ023-012300-
GREATER PHOENIX AREA

CITY           SKY/WX    TMP DP  RH WIND       PRES   REMARKS
PHOENIX        PTSUNNY   90  34  13 SW8       29.78F
BUCKEYE        MOSUNNY   86  27  11 SW13G18   29.81F
GLENDALE       MOSUNNY   88  34  14 SW12G18   29.82F
LUKE AFB       MOSUNNY   87  31  13 SW15G22   29.79F
DEER VALLEY    MOSUNNY   85  32  15 W14       29.81F
SCOTTSDALE     MOSUNNY   85  32  15 W13G22    29.82F
MESA-FALCON    PTSUNNY   88  36  15 W7        29.81F
MESA-GATEWAY   MOSUNNY   86  37  17 W8        29.83F
CHANDLER       MOSUNNY   88  34  14 SW10      29.81F
$$

AZZ027-028-012300-
SOUTHWEST MARICOPA COUNTY AND PINAL COUNTY

CITY           SKY/WX    TMP DP  RH WIND       PRES   REMARKS
CASA GRANDE    MOSUNNY   88  34  14 W5G22     29.81F
GILA BEND      MOSUNNY   89  29  11 SW14G22   29.79F
$$

AZZ503-504-507>509-012300-
SOUTHEAST ARIZONA

CITY           SKY/WX    TMP DP  RH WIND       PRES   REMARKS
TUCSON         SUNNY     88  21   8 SW14G22   29.88F
DAVIS-MONTHAN  SUNNY     87  22   9 W13G25    29.86F
RYAN FIELD       N/A     91  28  10 W13G29    29.87F
NOGALES        SUNNY     81  32  17 SW17G26   29.97F
SIERRA VISTA   SUNNY     77  27  15 W18G29    29.99F
DOUGLAS        SUNNY     81  31  16 W20G29    29.96F
SAFFORD        MOSUNNY   83  33  16 S7        29.85F
$$

AZZ020-021-025-026-031-012300-
SOUTHWEST ARIZONA

CITY           SKY/WX    TMP DP  RH WIND       PRES   REMARKS
YUMA           MOSUNNY   89  30  12 W8        29.80F
$$

CAZ031-033-041-043-047-048-061-012300-
SOUTHERN CALIFORNIA

CITY           SKY/WX    TMP DP  RH WIND       PRES   REMARKS
DOWNTOWN L.A.  SUNNY     72  50  45 VRB5      29.93F
L.A. AIRPORT   MOSUNNY   67  54  63 W13       29.94F
SAN DIEGO      MOSUNNY   69  53  56 SW6       29.95F
BURBANK        SUNNY     75  46  35 SE10      29.91F
ONTARIO        MOSUNNY   77  45  32 W12       29.92F
RIVERSIDE      SUNNY     77  46  33 W12       29.92F
PALM SPRINGS   SUNNY     91  28  10 NW15      29.80F
EL CENTRO NAS  MOSUNNY   91  22   8 NE7       29.78F
IMPERIAL       SUNNY     89  25  10 N8        29.78F
BLYTHE         SUNNY     89  26  10 SW9       29.79F
NEEDLES        SUNNY     89   7   4 SE8       29.80F
$$

NVZ020-UTZ003-012300-
SOUTHERN NEVADA-UTAH

CITY           SKY/WX    TMP DP  RH WIND       PRES   REMARKS
LAS VEGAS      MOSUNNY   79   7   6 VRB3      29.82F
SALT LAKE CITY PTSUNNY   50  14  23 NW10G17   30.05R
$$

NMZ009-TXZ055-012300-
NEW MEXICO-WEST TEXAS

CITY           SKY/WX    TMP DP  RH WIND       PRES   REMARKS
ALBUQUERQUE    MOSUNNY   74  23  15 W20G29    29.89F
EL PASO        MOSUNNY   81  32  17 W13G29    29.89F
$$


........................KEY........................
SKY/WX - SKY CONDITION/WEATHER
TMP    - TEMPERATURE IN FAHRENHEIT
DP     - DEW POINT IN FAHRENHEIT
RH     - RELATIVE HUMIDITY IN PERCENT
WIND   - DIRECTION AND SPEED IN MILES PER HOUR (MPH)
VRB    - VARIABLE WIND DIRECTION
PRES   - MEAN SEA LEVEL PRESSURE IN INCHES OF MERCURY
         F - FALLING PRESSURE   R - RISING PRESSURE
         S - STEADY PRESSURE
VSB    - VISIBILITY IN MILES
HX     - HEAT INDEX IN FAHRENHEIT
WCI    - WIND CHILL INDEX IN FAHRENHEIT
TC     - TEMPERATURE IN CELSIUS WHICH IS ALSO KNOWN AS
         TEMPERATURE IN CENTIGRADE
AFB    - AIR FORCE BASE
         LUKE AFB IS LUKE AIR FORCE BASE
         DAVIS-MONTHAN IS DAVIS-MONTHAN AIR FORCE BASE
NAS    - NAVAL AIR STATION
         EL CENTRO NAS IS EL CENTRO NAVAL AIR STATION
N/A    - NOT AVAILABLE



USA.gov is the U.S. government's official web portal to all federal, state and local government web resources and services.